User: anonymous   Login
Location: Unspecified
(42.3650°N, 71.1030°W)
Time: 20:39:53
(UTC+00:00)
Language:

Vanguard 3 - Orbit

View from above orbital plane
View from above orbital plane
View from above satellite
View from above satellite

Ground track
Ground track

The orbit data is extracted from the following two-line orbital elements,

1 00020U 59007A   24177.58104093  .00003321  00000-0  13522-2 0  9998
2 00020  33.3440 340.0035 1649991 152.3931 217.5007 11.58964239400744
Epoch (UTC): 25 June 2024 13:56:41
Eccentricity: 0.1649991
inclination: 33.3440°
perigee height: 509 km
apogee height: 3231 km
right ascension of ascending node: 340.0035°
argument of perigee: 152.3931°
revolutions per day: 11.58964239
mean anomaly at epoch: 217.5007°
orbit number at epoch: 40074

The dashed part of the orbit path shows where the satellite is in the earth's shadow,  

DLR